Location: Huntsville
(41.2590°N, 111.7678°W)
Time: 10:07:07
(UTC+00:00)

Courier 1B Rocket - Pass Details

Date: 20 June 2021
Orbit: 920 x 1202 km, 28.2° (Epoch: 29 July)

Event Time Altitude Azimuth Distance (km) Brightness Sun altitude
Rises 01:37:23 0° 220° (SW) 3,851 8.4 13.7°
Reaches altitude 10° 01:41:10 10° 202° (SSW) 2,838 7.5 13.0°
Maximum altitude 01:45:28 18° 163° (SSE) 2,269 6.7 12.2°
Drops below altitude 10° 01:49:37 10° 124° (SE) 2,718 6.8 11.5°
Sets 01:53:07 0° 105° (ESE) 3,623 7.3 10.9°
